Flag for United Kingdom Weather past 2 weeks in Oldham, England, United Kingdom

Now
61 °F

Clear.


Feels Like: 61 °F
Forecast: 51 / 77 °F
Wind: 2 mph from North

Location: Manchester Airport

Current Time: Jul 25, 2014 at 1:08:14 AM

Latest Report: Jul 25, 2014 at 12:20 AM


Visibility: 10 mi

Pressure: 30.12 "Hg

Humidity: 77%

Dew point: 54 °F

Location of OldhamLocation

Historic Weather in Oldham — Graph

°F

Oldham temperature yesterday

Maximum temperature yesterday: 81 °F (at 3:20 PM)
Minimum temperature yesterday: 57 °F (at 4:20 AM)
Average temperature yesterday: 70 °F

Past Weeks' High & Low Weather Summary

 TemperatureHumidityPressure
High81 °F (Jul 24, 3:20 PM)100% (Jul 10, 4:50 AM)30.27 "Hg (Jul 10, 4:50 AM)
Low46 °F (Jul 14, 4:20 AM)39% (Jul 24, 3:20 PM)29.71 "Hg (Jul 13, 5:20 AM)
Average65 °F75%30.01 "Hg
* Reported Jul 9 11:20 PM — Jul 24 11:50 PM, Oldham, Weather by CustomWeather, © 2014

Note: Actual official high and low records may vary slightly from our data, if they occured in-between our weather recording intervals... More about our weather records

Advertising

Oldham weather history for previous 24 hours

 ConditionsComfort  
Time TempWeatherWind HumidityBarometerVisibility
11:50 PM
Jul 24
63 °FClear.6 mph73%30.12 "Hg10 mi
11:20 PM66 °FPassing clouds.5 mph64%30.12 "HgN/A
10:50 PM66 °FClear.5 mph64%30.12 "Hg10 mi
10:20 PM66 °FClear.5 mph64%30.12 "Hg10 mi
9:50 PM66 °FSunny.7 mph64%30.12 "Hg10 mi
9:20 PM70 °FSunny.7 mph57%30.12 "Hg10 mi
8:50 PM72 °FSunny.9 mph53%30.09 "Hg10 mi
8:20 PM73 °FSunny.8 mph47%30.09 "Hg10 mi
7:50 PM75 °FSunny.15 mph44%30.09 "Hg10 mi
7:20 PM75 °FSunny.13 mph44%30.09 "Hg10 mi
6:50 PM77 °FSunny.14 mph39%30.09 "Hg10 mi
6:20 PM77 °FPassing clouds.10 mph44%30.09 "HgN/A
5:50 PM77 °FPassing clouds.13 mph44%30.09 "HgN/A
5:20 PM79 °FPassing clouds.12 mph39%30.09 "HgN/A
4:50 PM79 °FSunny.12 mph42%30.09 "Hg10 mi
4:20 PM81 °FPassing clouds.14 mph39%30.09 "HgN/A
3:50 PM79 °FSunny.15 mph39%30.09 "Hg10 mi
3:20 PM81 °FPassing clouds.16 mph39%30.09 "HgN/A
2:50 PM79 °FSunny.16 mph42%30.09 "Hg10 mi
2:20 PM79 °FPassing clouds.14 mph45%30.12 "HgN/A
1:50 PM79 °FSunny.15 mph48%30.12 "Hg10 mi
1:20 PM77 °FSunny.13 mph51%30.12 "Hg10 mi
12:50 PM77 °FSunny.14 mph44%30.12 "Hg10 mi
12:20 PM77 °FWarm.14 mph51%30.12 "HgN/A
11:50 AM77 °FPassing clouds.10 mph51%30.12 "HgN/A
11:20 AM75 °FPassing clouds.9 mph57%30.12 "HgN/A
10:50 AM73 °FSunny.10 mph57%30.12 "Hg10 mi
10:20 AM72 °FSunny.10 mph61%30.15 "Hg10 mi
9:50 AM70 °FSunny.12 mph64%30.15 "Hg10 mi
9:20 AM70 °FSunny.9 mph64%30.15 "Hg10 mi
8:50 AM68 °FPassing clouds.8 mph69%30.15 "HgN/A
8:20 AM66 °FSunny.8 mph73%30.15 "Hg10 mi
7:50 AM64 °FSunny.7 mph78%30.15 "Hg10 mi
7:20 AM64 °FSunny.7 mph73%30.12 "Hg10 mi
6:50 AM63 °FClear.9 mph77%30.12 "Hg6 mi
6:20 AM61 °FClear.10 mph83%30.12 "Hg5 mi
5:50 AM59 °FClear.9 mph88%30.12 "Hg5 mi
5:20 AM59 °FClear.12 mph88%30.12 "Hg5 mi
4:50 AM57 °FCool.9 mph88%30.12 "HgN/A
4:20 AM57 °FClear.3 mph88%30.12 "Hg10 mi
3:50 AM59 °FClear.8 mph82%30.12 "Hg10 mi
3:20 AM61 °FCool.No wind83%30.12 "HgN/A
2:50 AM59 °FCool.8 mph88%30.12 "HgN/A
2:20 AM61 °FCool.9 mph83%30.15 "HgN/A
1:50 AM63 °FClear.6 mph77%30.15 "Hg10 mi
1:20 AM63 °FClear.8 mph77%30.15 "Hg10 mi
Weather by CustomWeather, © 2014

See weather overviewHow to use our weather pages